Weather History for K2C8 - March, 2013

Change the Weather History Date:

Tuesday, March 12, 2013

  Actual Average (KGAF) Record (KGAF)
Temperature  
Mean Temperature 14 °F -  
Max Temperature 19 °F 31 °F 57 °F (1981)
Min Temperature 8 °F 15 °F -25 °F (1956)
Degree Days  
Heating Degree Days 52    
Moisture  
Dew Point 12 °F    
Average Humidity 83    
Maximum Humidity 100    
Minimum Humidity 68    
Precipitation  
Precipitation 0.02 in - - ()
Sea Level Pressure  
Sea Level Pressure 30.14 in    
Wind  
Wind Speed 13 mph (NNW)    
Max Wind Speed 23 mph    
Max Gust Speed 31 mph    
Visibility 9 miles    
Events Rain , Snow    
Averages and records for this station are not official NWS values.
T = Trace of Precipitation, MM = Missing Value Source: NWS Daily Summary

Daily Weather History Graph

Daily Weather History Graph

Search for Another Location

Airport or City:

Trip Planner

Search our weather history database for the weather conditions in past years. The results will help you decide how hot, cold, wet, or windy it might be!

Date:

Astronomy

Mar. 12, 2013 Rise Set
Actual Time 7:49 AM CDT 7:31 PM CDT
Civil Twilight 7:18 AM CDT 8:03 PM CDT
Nautical Twilight 6:41 AM CDT 8:39 PM CDT
Astronomical Twilight 6:04 AM CDT 9:17 PM CDT
Moon 7:49 AM CDT (3/12) 8:58 PM CDT (3/12)
Length of Visible Light 12h 45m
Length of Day
11h 42m
New Moon, 1% of the Moon is Illuminated
Mar 12
New Moon
Mar 19
First Quarter
Mar 27
Full
Apr 2
Last Quarter
Apr 10
New

Hourly Weather History & Observations

Time (CDT) Temp. Windchill Dew Point Humidity Pressure Visibility Wind Dir Wind Speed Gust Speed Precip Events Conditions
12:15 AM 15.8 °F 5.1 °F 10.4 °F 79% 29.91 in 10.0 mi NNW 8.1 mph - N/A   Clear
12:35 AM 15.8 °F 4.2 °F 10.4 °F 79% 29.92 in 10.0 mi NNW 9.2 mph - N/A   Clear
12:55 AM 15.8 °F 4.2 °F 10.4 °F 79% 29.93 in 10.0 mi NNW 9.2 mph - N/A   Clear
1:15 AM 15.8 °F 4.2 °F 10.4 °F 79% 29.93 in 10.0 mi NNW 9.2 mph - N/A   Clear
1:35 AM 15.8 °F 4.2 °F 12.2 °F 86% 29.94 in 10.0 mi NNW 9.2 mph - N/A   Scattered Clouds
1:55 AM 15.8 °F 4.2 °F 14.0 °F 93% 29.95 in 4.0 mi NNW 9.2 mph - N/A Snow Light Snow
2:15 AM 15.8 °F 4.2 °F 14.0 °F 93% 29.96 in 5.0 mi NNW 9.2 mph - N/A Snow Light Snow
2:35 AM 15.8 °F 2.7 °F 14.0 °F 93% 29.96 in 3.0 mi NNW 11.5 mph - N/A Snow Light Snow
2:55 AM 15.8 °F 3.4 °F 15.8 °F 100% 29.97 in 2.0 mi NNW 10.4 mph - 0.02 in Snow Light Snow
3:15 AM 15.8 °F 3.4 °F 15.8 °F 100% 29.97 in 2.5 mi NNW 10.4 mph - N/A Snow Light Snow
3:35 AM 15.8 °F 2.7 °F 14.0 °F 93% 29.98 in 5.0 mi NNW 11.5 mph - N/A Snow Light Snow
3:55 AM 15.8 °F 2.1 °F 14.0 °F 93% 29.98 in 9.0 mi NNW 12.7 mph - N/A   Clear
4:15 AM 15.8 °F 2.1 °F 14.0 °F 93% 29.99 in 10.0 mi NNW 12.7 mph - N/A   Clear
4:35 AM 15.8 °F 3.4 °F 14.0 °F 93% 29.99 in 10.0 mi NW 10.4 mph - N/A   Clear
4:55 AM 15.8 °F 2.1 °F 14.0 °F 93% 30.00 in 10.0 mi NW 12.7 mph - N/A   Clear
5:15 AM 15.8 °F 2.7 °F 14.0 °F 93% 30.00 in 10.0 mi NW 11.5 mph - N/A   Clear
5:35 AM 15.8 °F 3.4 °F 14.0 °F 93% 30.01 in 10.0 mi NW 10.4 mph - N/A   Clear
5:55 AM 15.8 °F 3.4 °F 14.0 °F 93% 30.02 in 10.0 mi NW 10.4 mph - N/A   Clear
6:15 AM 15.8 °F 2.1 °F 14.0 °F 93% 30.03 in 10.0 mi NW 12.7 mph - N/A   Scattered Clouds
6:35 AM 17.6 °F 5.0 °F 15.8 °F 93% 30.04 in 10.0 mi NW 11.5 mph - N/A   Mostly Cloudy
6:55 AM 17.6 °F 3.2 °F 15.8 °F 93% 30.05 in 10.0 mi NNW 15.0 mph - N/A   Scattered Clouds
7:15 AM 17.6 °F 3.7 °F 15.8 °F 93% 30.05 in 10.0 mi NNW 13.8 mph - N/A   Mostly Cloudy
7:35 AM 17.6 °F 3.2 °F 15.8 °F 93% 30.06 in 10.0 mi NNW 15.0 mph - N/A   Mostly Cloudy
7:55 AM 17.6 °F 3.2 °F 15.8 °F 93% 30.07 in 10.0 mi NNW 15.0 mph - N/A   Overcast
8:15 AM 17.6 °F 3.2 °F 15.8 °F 93% 30.08 in 10.0 mi NNW 15.0 mph 19.6 mph N/A   Scattered Clouds
8:55 AM 17.6 °F 2.2 °F 15.8 °F 93% 30.09 in 10.0 mi NNW 17.3 mph 24.2 mph N/A   Clear
9:15 AM 17.6 °F 1.7 °F 15.8 °F 93% 30.10 in 10.0 mi NNW 18.4 mph 23.0 mph N/A   Clear
9:35 AM 17.6 °F 1.7 °F 15.8 °F 93% 30.11 in 10.0 mi NNW 18.4 mph 24.2 mph N/A   Clear
9:55 AM 17.6 °F 0.9 °F 15.8 °F 93% 30.11 in 10.0 mi NNW 20.7 mph 24.2 mph N/A   Clear
10:15 AM 19.4 °F 3.2 °F 15.8 °F 86% 30.12 in 9.0 mi NNW 20.7 mph 26.5 mph N/A   Clear
10:35 AM 19.4 °F 3.2 °F 15.8 °F 86% 30.13 in 7.0 mi NNW 20.7 mph 26.5 mph N/A   Clear
10:55 AM 19.4 °F 2.5 °F 15.8 °F 86% 30.15 in 5.0 mi NNW 23.0 mph 29.9 mph N/A   Partly Cloudy
11:15 AM 19.4 °F 5.5 °F 17.6 °F 93% 30.15 in 3.0 mi NNW 15.0 mph 28.8 mph N/A Snow Light Snow
11:55 AM 19.4 °F 2.5 °F 15.8 °F 86% 30.17 in 4.0 mi NNW 23.0 mph 31.1 mph N/A Rain Light Freezing Rain
12:15 PM 19.4 °F 3.6 °F 15.8 °F 86% 30.17 in 3.0 mi NNW 19.6 mph 29.9 mph N/A Snow Light Snow
12:35 PM 19.4 °F 4.1 °F 15.8 °F 86% 30.18 in 3.0 mi NNW 18.4 mph 27.6 mph N/A Rain Light Freezing Rain
12:55 PM 19.4 °F 2.5 °F 15.8 °F 86% 30.19 in 5.0 mi NNW 23.0 mph 31.1 mph N/A Rain Light Freezing Rain
1:15 PM 19.4 °F 3.6 °F 15.8 °F 86% 30.19 in 5.0 mi NNW 19.6 mph 28.8 mph N/A   Mostly Cloudy
1:35 PM 19.4 °F 4.5 °F 15.8 °F 86% 30.19 in 5.0 mi NNW 17.3 mph 23.0 mph N/A   Partly Cloudy
1:55 PM 19.4 °F 3.2 °F 15.8 °F 86% 30.20 in 9.0 mi NNW 20.7 mph 27.6 mph N/A   Clear
2:15 PM 19.4 °F 3.6 °F 14.0 °F 80% 30.20 in 9.0 mi NNW 19.6 mph 29.9 mph N/A   Scattered Clouds
2:35 PM 19.4 °F 3.2 °F 14.0 °F 80% 30.20 in 10.0 mi NNW 20.7 mph 26.5 mph N/A   Partly Cloudy
2:55 PM 19.4 °F 5.0 °F 14.0 °F 80% 30.21 in 10.0 mi NNW 16.1 mph 23.0 mph N/A   Clear
3:15 PM 19.4 °F 4.5 °F 14.0 °F 80% 30.21 in 10.0 mi NNW 17.3 mph - N/A   Clear
3:35 PM 19.4 °F 3.2 °F 14.0 °F 80% 30.21 in 10.0 mi NNW 20.7 mph 26.5 mph N/A   Clear
3:55 PM 19.4 °F 4.5 °F 14.0 °F 80% 30.22 in 10.0 mi NNW 17.3 mph 23.0 mph N/A   Clear
4:15 PM 19.4 °F 3.2 °F 12.2 °F 74% 30.23 in 10.0 mi NNW 20.7 mph 26.5 mph N/A   Clear
4:35 PM 19.4 °F 4.5 °F 14.0 °F 80% 30.23 in 10.0 mi NNW 17.3 mph - N/A   Clear
4:55 PM 19.4 °F 6.0 °F 14.0 °F 80% 30.24 in 10.0 mi NNW 13.8 mph 24.2 mph N/A   Clear
5:15 PM 19.4 °F 4.1 °F 12.2 °F 74% 30.24 in 10.0 mi NNW 18.4 mph 23.0 mph N/A   Clear
5:35 PM 17.6 °F 0.9 °F 10.4 °F 73% 30.24 in 10.0 mi NNW 20.7 mph 25.3 mph N/A   Clear
5:55 PM 17.6 °F 1.7 °F 10.4 °F 73% 30.25 in 10.0 mi NNW 18.4 mph 21.9 mph N/A   Clear
6:15 PM 17.6 °F 2.7 °F 10.4 °F 73% 30.26 in 10.0 mi NNW 16.1 mph 21.9 mph N/A   Clear
6:35 PM 17.6 °F 3.7 °F 10.4 °F 73% 30.26 in 10.0 mi NNW 13.8 mph 18.4 mph N/A   Clear
6:55 PM 17.6 °F 3.7 °F 8.6 °F 68% 30.27 in 10.0 mi NNW 13.8 mph 20.7 mph N/A   Clear
7:15 PM 15.8 °F 2.1 °F 8.6 °F 73% 30.27 in 10.0 mi NNW 12.7 mph 18.4 mph N/A   Clear
7:35 PM 15.8 °F 0.3 °F 8.6 °F 73% 30.28 in 10.0 mi NNW 16.1 mph 19.6 mph N/A   Clear
7:55 PM 15.8 °F 2.1 °F 6.8 °F 68% 30.29 in 10.0 mi NW 12.7 mph - N/A   Clear
8:15 PM 15.8 °F 2.1 °F 6.8 °F 68% 30.29 in 10.0 mi NW 12.7 mph - N/A   Clear
8:35 PM 14.0 °F -0.2 °F 6.8 °F 73% 30.30 in 10.0 mi NW 12.7 mph - N/A   Clear
8:55 PM 14.0 °F 0.5 °F 6.8 °F 73% 30.30 in 10.0 mi NW 11.5 mph - N/A   Clear
9:15 PM 14.0 °F 1.2 °F 6.8 °F 73% 30.30 in 10.0 mi NW 10.4 mph - N/A   Clear
9:35 PM 12.2 °F -1.8 °F 5.0 °F 73% 30.30 in 10.0 mi NW 11.5 mph - N/A   Clear
9:55 PM 12.2 °F -1.0 °F 5.0 °F 73% 30.30 in 10.0 mi NW 10.4 mph - N/A   Clear
10:15 PM 12.2 °F -1.0 °F 5.0 °F 73% 30.30 in 10.0 mi NW 10.4 mph - N/A   Clear
10:35 PM 10.4 °F -3.3 °F 5.0 °F 79% 30.31 in 10.0 mi NNW 10.4 mph - N/A   Clear
10:55 PM 10.4 °F -2.4 °F 3.2 °F 73% 30.31 in 10.0 mi NNW 9.2 mph - N/A   Clear
11:15 PM 10.4 °F -3.3 °F 3.2 °F 73% 30.31 in 10.0 mi NW 10.4 mph - N/A   Clear
11:35 PM 8.6 °F -4.7 °F 1.4 °F 73% 30.31 in 10.0 mi NW 9.2 mph - N/A   Clear
11:55 PM 8.6 °F -4.7 °F 1.4 °F 73% 30.31 in 10.0 mi NW 9.2 mph - N/A   Clear